Location: Haliburton Scout Reserve
(45.0900°N, 78.3200°W)
Time: 18:04:37
(UTC-04:00)

STRAND 1 - Pass Details

Date: 03 April 2023
Orbit: 767 x 779 km, 98.4° (Epoch: 06 June)

Event Time Altitude Azimuth Distance (km) Brightness Sun altitude
Rises 06:19:09 0° 142° (SE) 3,242 ? -6.3°
Reaches altitude 10° 06:21:34 10° 135° (SE) 2,317 ? -5.9°
Maximum altitude 06:26:17 39° 68° (ENE) 1,156 ? -5.0°
Drops below altitude 10° 06:31:00 10° 1° (N) 2,325 ? -4.2°
Sets 06:33:26 0° 354° (N) 3,255 ? -3.8°
